This is the latest recevied weather packets stored in our database for station/object AJ7DN. If no packets are shown the sender has not sent any weather packets the latest 10 day(s).
| Time | Temp. | Humidity | Pressure | Rain* | Wind** | Luminosity | Snow |
|---|---|---|---|---|---|---|---|
| 1777760695 | 21.11° C | 61% | 1017.2 hPa | 0 mm | - | 386 W/m² | - |
| 1777760390 | 21.67° C | 59% | 1017.3 hPa | 0 mm | - | 397 W/m² | - |
| 1777760087 | 21.11° C | 61% | 1017.3 hPa | 0 mm | - | 477 W/m² | - |
| 1777759784 | 20.56° C | 63% | 1017.4 hPa | 0 mm | - | 500 W/m² | - |
| 1777759480 | 20.56° C | 63% | 1017.6 hPa | 0 mm | - | 512 W/m² | - |
| 1777759177 | 20° C | 63% | 1017.5 hPa | 0 mm | - | 510 W/m² | - |
| 1777758874 | 20.56° C | 61% | 1017.6 hPa | 0 mm | - | 392 W/m² | - |
| 1777758571 | 20.56° C | 63% | 1017.8 hPa | 0 mm | - | 539 W/m² | - |
| 1777758268 | 20° C | 64% | 1017.5 hPa | 0 mm | - | 460 W/m² | - |
| 1777757965 | 20° C | 64% | 1018 hPa | 0 mm | - | 533 W/m² | - |
| 1777757661 | 20° C | 64% | 1017.9 hPa | 0 mm | - | 631 W/m² | - |
| 1777757360 | 20° C | 63% | 1018 hPa | 0 mm | - | 629 W/m² | - |
| 1777757059 | 19.44° C | 64% | 1018.1 hPa | 0 mm | - | 691 W/m² | - |
| 1777756756 | 18.89° C | 66% | 1018.3 hPa | 0 mm | - | 704 W/m² | - |
| 1777756451 | 17.78° C | 68% | 1018.2 hPa | 0 mm | - | 621 W/m² | - |
| 1777756149 | 17.78° C | 70% | 1018.3 hPa | 0 mm | - | 520 W/m² | - |
| 1777755845 | 17.22° C | 70% | 1018.5 hPa | 0 mm | - | 381 W/m² | - |
| 1777755543 | 17.22° C | 70% | 1018.5 hPa | 0 mm | - | 416 W/m² | - |
| 1777755238 | 17.22° C | 70% | 1018.6 hPa | 0 mm | - | 396 W/m² | - |
| 1777754936 | 17.78° C | 69% | 1018.8 hPa | 0 mm | - | 360 W/m² | - |
| 1777754633 | 17.78° C | 69% | 1018.7 hPa | 0 mm | - | 458 W/m² | - |
| 1777754330 | 17.22° C | 70% | 1018.9 hPa | 0 mm | - | 538 W/m² | - |
| 1777754028 | 17.22° C | 70% | 1018.9 hPa | 0 mm | - | 332 W/m² | - |
| 1777753723 | 17.22° C | 71% | 1019 hPa | 0 mm | - | 578 W/m² | - |
| 1777753421 | 16.67° C | 73% | 1019.2 hPa | 0 mm | - | 460 W/m² | - |
* Rain latest hour (hover to see other rain measurements)
** Current wind speed in m/s (hover to see current wind gust speed)